[[{"header":{"parameterUnit":"m.s-1","parameterCategory":1,"la1":30.2991,"la2":30.254,"lo1":-89.0895,"lo2":-89.0444,"dy":0.0017,"dx":0.0017,"nx":28,"ny":28,"refTime":"2023-09-25T09:00:00:Z","depth":0,"parameterNumber":2,"parameterNumberName":"U-component_of_WINDS"},"data":[0,0,0,0,0,0,0,0,0,0,0,0,0,0,0,0,0,0,0,0,0,0,0,0,0,0,0,0,0,0,0,0,0,0,0,0,0,0,0,0,0,0,0,0,0,0,0,0,0,0,0,0,0,0,0,0,0,0,-3.2694,-3.2696,0,-3.2866,-3.2868,-3.287,-3.2838,-3.2835,-3.2832,-3.2829,-3.3014,-3.3022,-3.3029,0,0,0,0,0,0,0,0,0,0,0,0,0,-3.2348,-3.2354,-3.2694,-3.2696,-3.2698,-3.2865,-3.2868,-3.287,-3.2839,-3.2835,-3.2831,-3.2828,-3.3011,-3.3021,-3.303,0,0,0,0,0,0,0,0,0,0,0,0,0,-3.2507,-3.2356,-3.2693,-3.2702,-3.2705,-3.2865,-3.2868,-3.2871,-3.284,-3.2835,-3.283,-3.2826,-3.3008,-3.302,-3.3031,-3.3196,0,0,-3.3067,-3.3072,0,0,0,0,0,0,0,0,-3.2498,-3.252,-3.2699,-3.2702,-3.2705,-3.2826,-3.2813,-3.298,-3.2841,-3.2789,-3.2829,-3.2824,-3.2956,-3.2971,-3.3014,-3.3205,-3.3212,-3.3068,-3.3075,-3.308,-3.3083,0,0,0,0,0,0,0,-3.2487,-3.2512,-3.2762,-3.2702,-3.2705,-3.2701,-3.2718,-3.2845,-3.2896,-3.2793,-3.2791,-3.2811,-3.2957,-3.3003,-3.3018,-3.3215,-3.3068,-3.3078,-3.3085,-3.309,-3.3554,-3.3559,0,0,0,0,0,0,-3.2472,-3.2503,-3.2756,-3.2767,-3.2588,-3.2711,-3.273,-3.2792,-3.2895,-3.2906,-3.2815,-3.2809,-3.2985,-3.3005,-3.3025,-3.3227,-3.308,-3.3091,-3.3098,-3.3548,-3.3555,-3.3561,0,0,0,0,0,0,-3.2464,-3.2495,-3.275,-3.2635,-3.2667,-3.2722,-3.2791,-3.2798,-3.2844,-3.2911,-3.2921,-3.2852,-3.2982,-3.3008,-3.3154,-3.3233,-3.3096,-3.3107,-3.3542,-3.355,-3.3558,-3.3631,0,0,0,0,0,0,-3.2454,-3.2492,-3.2553,-3.2636,-3.2673,-3.2873,-3.2796,-3.2804,-3.2863,-3.2857,-3.2949,-3.296,-3.2981,-3.3137,-3.3165,-3.3246,-3.3116,-3.3535,-3.3546,-3.3555,-3.3622,-3.364,-3.3656,0,0,0,0,0,-3.2442,-3.2568,-3.2556,-3.2587,-3.2749,-3.2878,-3.2899,-3.2918,-3.2869,-3.2933,-3.2977,-3.2957,-3.3219,-3.3152,-3.3184,-3.327,-3.3531,-3.3543,-3.3554,-3.3614,-3.3636,-3.3656,0,0,0,0,0,0,-3.2494,-3.2579,-3.2567,-3.2722,-3.2793,-3.2872,-3.2952,-3.2941,-3.3029,-3.302,-3.3042,-3.3063,-3.3212,-3.3255,-3.3179,-3.3436,-3.3368,-3.3387,-3.3403,-3.3425,-3.3442,-3.3429,-3.3126,0,0,0,0,0,-3.2523,-3.2617,-3.2687,-3.2818,-3.2853,-3.2897,-3.2953,-3.2962,-3.3037,-3.3067,-3.3122,-3.3198,-3.3298,-3.3363,-3.3459,-3.3627,-3.3649,-3.3702,-3.3719,-3.3733,-3.375,-3.3846,-3.3872,-3.36,-3.36,-3.36,0,0,-3.2586,-3.2643,-3.2702,-3.283,-3.2885,-3.2986,-3.2922,-3.303,-3.3106,-3.3085,-3.3225,-3.3269,-3.3356,-3.3514,-3.3587,-3.3555,-3.383,-3.3749,-3.3759,-3.3769,-3.3861,-3.3887,-3.391,-3.3608,-3.3606,-3.3605,0,0,-3.275,-3.2802,-3.2917,-3.2974,-3.3059,-3.3087,-3.3115,-3.3197,-3.3224,-3.3365,-3.3351,-3.3444,-3.3614,-3.3677,-3.3732,-3.3923,-3.391,-3.3954,-3.4045,-3.4138,-3.416,-3.4179,-3.425,-3.4275,-3.397,-3.397,-3.397,0,-3.2817,-3.2965,-3.2979,-3.3089,-3.3148,-3.313,-3.325,-3.3306,-3.3418,-3.3461,-3.3422,-3.3637,-3.3695,-3.3869,-3.3916,-3.396,-3.3996,-3.3944,-3.4155,-3.4174,-3.4193,-3.4261,-3.4287,-3.3975,-3.3974,-3.3974,-3.3973,0,-3.3045,-3.3148,-3.3232,-3.3339,-3.3407,-3.3521,-3.3556,-3.3624,-3.3626,-3.366,-3.3806,-3.3874,-3.3984,-3.4026,-3.4031,-3.4203,-3.4181,-3.4149,-3.4082,-3.4223,-3.4288,-3.4314,-3.3982,-3.398,-3.3979,-3.3978,0,0,-3.3248,-3.3361,-3.3392,-3.3442,-3.3534,-3.3616,-3.3731,-3.3837,-3.3896,-3.3975,-3.4075,-3.422,-3.4191,-3.4253,-3.4265,-3.4347,-3.4498,-3.4305,-3.4308,-3.4341,-3.4697,-3.4722,-3.4752,-3.4489,-3.4494,-3.4498,-3.469,0,-3.3423,-3.3623,-3.364,-3.3822,-3.392,-3.3906,-3.4007,-3.4077,-3.4112,-3.4202,-3.4242,-3.4346,-3.4298,-3.4336,-3.4416,-3.4462,-3.457,-3.4448,-3.4586,-3.4591,-3.4567,-3.4785,-3.4812,-3.499,-3.4715,-3.472,-3.4723,0,-3.3654,-3.3738,-3.3929,-3.401,-3.4052,-3.4142,-3.4241,-3.4326,-3.4407,-3.4427,-3.4497,-3.4499,-3.4622,-3.4548,-3.472,-3.4637,-3.4695,-3.4727,-3.4734,-3.475,-3.4667,-3.481,-3.5047,-3.5075,-3.4762,-3.4759,-3.4756,0,-3.3786,-3.3947,-3.4082,-3.4125,-3.4223,-3.4287,-3.4331,-3.4407,-3.447,-3.4558,-3.46,-3.4702,-3.4759,-3.484,-3.4871,-3.4813,-3.5043,-3.4971,-3.5067,-3.5066,-3.5117,-3.5114,-3.537,-3.515,-3.5149,-3.5149,-3.5148,0,-3.3981,-3.41,-3.4143,-3.4227,-3.4361,-3.4381,-3.4513,-3.4555,-3.4623,-3.4717,-3.4712,-3.4801,-3.4835,-3.4931,-3.4956,-3.5097,-3.5122,-3.5145,-3.5151,-3.5147,-3.5145,-3.5187,-3.5176,-3.5156,-3.5154,-3.5153,-3.5152,0,-3.4152,-3.4185,-3.4333,-3.4413,-3.4436,-3.4532,-3.4602,-3.4685,-3.4718,-3.4838,-3.4868,-3.4922,-3.5036,-3.5073,-3.5211,-3.5228,-3.5393,-3.5387,-3.5366,-3.5367,-3.5462,-3.5454,-3.5756,-3.5799,-3.5548,-3.555,-3.5552,0,-3.4275,-3.4366,-3.4456,-3.4517,-3.4564,-3.4663,-3.4727,-3.4751,-3.4819,-3.4919,-3.4991,-3.5103,-3.5194,-3.5376,-3.543,-3.5537,-3.5535,-3.5634,-3.5551,-3.5546,-3.5541,-3.5536,-3.5547,-3.565,-3.5653,-3.5655,-3.5656,0,-3.4492,-3.4505,-3.4596,-3.4694,-3.477,-3.485,-3.4926,-3.4978,-3.5014,-3.5091,-3.5206,-3.5276,-3.5416,-3.5529,-3.5638,-3.5688,-3.5681,-3.5682,-3.571,-3.5709,-3.5694,-3.5706,-3.5411,-3.5675,-3.5673,-3.5672,-3.5671,-3.567,-3.4646,-3.4726,-3.4803,-3.4905,-3.4965,-3.5037,-3.512,-3.5163,-3.5258,-3.5373,-3.5382,-3.5507,-3.5589,-3.5734,-3.5789,-3.589,-3.5862,-3.5903,-3.5913,-3.5924,-3.5933,-3.5675,-3.5909,-3.5909,-3.5908,-3.5908,-3.5908,0,-3.4865,-3.4913,-3.5007,-3.5114,-3.5196,-3.5178,-3.5263,-3.5334,-3.5442,-3.5518,-3.5607,-3.5741,-3.5851,-3.5913,-3.6024,-3.6093,-3.6093,-3.6122,-3.6119,-3.6131,-3.5949,-3.5915,-3.6121,-3.612,-3.612,-3.612,-3.612,-3.612,-3.4988,-3.5125,-3.5147,-3.5315,-3.5364,-3.5484,-3.5534,-3.5602,-3.5663,-3.5812,-3.5902,-3.5941,-3.6013,-3.6129,-3.6231,-3.6247,-3.629,-3.6322,-3.6336,-3.6165,-3.6143,-3.6123,-3.6091,-3.633,-3.633,-3.651,-3.6512,-3.6513]},{"header":{"parameterUnit":"m.s-1","parameterCategory":1,"la1":30.2991,"la2":30.254,"lo1":-89.0895,"lo2":-89.0444,"dy":0.0017,"dx":0.0017,"nx":28,"ny":28,"refTime":"2023-09-25T09:00:00:Z","depth":0,"parameterNumber":3,"parameterNumberName":"V-component_of_WINDS"},"data":[0,0,0,0,0,0,0,0,0,0,0,0,0,0,0,0,0,0,0,0,0,0,0,0,0,0,0,0,0,0,0,0,0,0,0,0,0,0,0,0,0,0,0,0,0,0,0,0,0,0,0,0,0,0,0,0,0,0,-1.0192,-1.0192,0,-1.0146,-1.0146,-1.0145,-1.0078,-1.0077,-1.0075,-1.0074,-1.0028,-1.0028,-1.0027,0,0,0,0,0,0,0,0,0,0,0,0,0,-1.0222,-1.0222,-1.0192,-1.0192,-1.0191,-1.0146,-1.0146,-1.0145,-1.0078,-1.0077,-1.0075,-1.0074,-1.0028,-1.0028,-1.0027,0,0,0,0,0,0,0,0,0,0,0,0,0,-1.0196,-1.0222,-1.0192,-1.0152,-1.0148,-1.0146,-1.0146,-1.0145,-1.0078,-1.0076,-1.0075,-1.0073,-1.0028,-1.0028,-1.0027,-1.0061,0,0,-1.0027,-1.0027,0,0,0,0,0,0,0,0,-1.0198,-1.0195,-1.0159,-1.0155,-1.015,-1.0116,-1.0139,-1.0117,-1.0079,-1.0105,-1.0074,-1.0072,-1.0059,-1.0056,-1.0051,-1.0059,-1.0057,-1.0027,-1.0027,-1.0027,-1.0026,0,0,0,0,0,0,0,-1.02,-1.0197,-1.0174,-1.0158,-1.0153,-1.0137,-1.0131,-1.0135,-1.0092,-1.0102,-1.0097,-1.0093,-1.0056,-1.0051,-1.0049,-1.0056,-1.0027,-1.0027,-1.0026,-1.0026,-1.009,-1.0092,0,0,0,0,0,0,-1.0207,-1.0199,-1.0175,-1.0173,-1.017,-1.0137,-1.0131,-1.0129,-1.0092,-1.0085,-1.0094,-1.009,-1.0053,-1.005,-1.0047,-1.0085,-1.0027,-1.0026,-1.0026,-1.0088,-1.0091,-1.0093,0,0,0,0,0,0,-1.0208,-1.0206,-1.0177,-1.0184,-1.0179,-1.0139,-1.0137,-1.0129,-1.0124,-1.0086,-1.0078,-1.0097,-1.0051,-1.0048,-1.0058,-1.0082,-1.0026,-1.0026,-1.0086,-1.0089,-1.0092,-1.0161,0,0,0,0,0,0,-1.0209,-1.0207,-1.0219,-1.0185,-1.0179,-1.0189,-1.0138,-1.0129,-1.0124,-1.0117,-1.0087,-1.008,-1.0049,-1.0059,-1.0058,-1.0081,-1.0026,-1.0084,-1.0087,-1.0091,-1.0156,-1.0165,-1.0173,0,0,0,0,0,-1.0211,-1.0241,-1.022,-1.0218,-1.0194,-1.0191,-1.0187,-1.0152,-1.0126,-1.0138,-1.0114,-1.0081,-1.008,-1.0061,-1.0059,-1.0082,-1.0082,-1.0086,-1.009,-1.0152,-1.0163,-1.0173,0,0,0,0,0,0,-1.0279,-1.0235,-1.0212,-1.0232,-1.0215,-1.0179,-1.0194,-1.0165,-1.0155,-1.015,-1.0106,-1.01,-1.0116,-1.01,-1.0079,-1.0113,-1.0076,-1.008,-1.0123,-1.0134,-1.0142,-1.0146,-1.0026,0,0,0,0,0,-1.0296,-1.0297,-1.0259,-1.028,-1.0273,-1.0235,-1.0232,-1.0206,-1.0187,-1.018,-1.0156,-1.0139,-1.0135,-1.0133,-1.0127,-1.0153,-1.0145,-1.0168,-1.0177,-1.0184,-1.0188,-1.0201,-1.0211,-1.0106,-1.0106,-1.0106,0,0,-1.0332,-1.0308,-1.0311,-1.0293,-1.0277,-1.0279,-1.0229,-1.0234,-1.0235,-1.0181,-1.0189,-1.0171,-1.0149,-1.0168,-1.0175,-1.0155,-1.0215,-1.0189,-1.0195,-1.0196,-1.0206,-1.0216,-1.0225,-1.0109,-1.0108,-1.0108,0,0,-1.0398,-1.038,-1.0396,-1.0381,-1.0358,-1.0332,-1.0336,-1.0304,-1.029,-1.0298,-1.0257,-1.0258,-1.0251,-1.0238,-1.023,-1.0291,-1.0261,-1.029,-1.0336,-1.0349,-1.0357,-1.0364,-1.0387,-1.0395,-1.0294,-1.0294,-1.0294,0,-1.0446,-1.0447,-1.0408,-1.0415,-1.0408,-1.0358,-1.0374,-1.0361,-1.0337,-1.0334,-1.0312,-1.0303,-1.0285,-1.0299,-1.0314,-1.0309,-1.0313,-1.0294,-1.0359,-1.0366,-1.0372,-1.0393,-1.0401,-1.0298,-1.0298,-1.0297,-1.0297,0,-1.0507,-1.0509,-1.0524,-1.0502,-1.0497,-1.0508,-1.0471,-1.047,-1.0444,-1.0421,-1.043,-1.0406,-1.0395,-1.0396,-1.037,-1.0407,-1.0395,-1.0367,-1.0329,-1.0386,-1.0405,-1.0413,-1.0304,-1.0302,-1.0301,-1.03,0,0,-1.0617,-1.0572,-1.0578,-1.0568,-1.0538,-1.0539,-1.0548,-1.0536,-1.0537,-1.0522,-1.0528,-1.0524,-1.0497,-1.0488,-1.0461,-1.0472,-1.0523,-1.0442,-1.0441,-1.0459,-1.0562,-1.0585,-1.0595,-1.0502,-1.0503,-1.0504,-1.0564,0,-1.0678,-1.0691,-1.0655,-1.0677,-1.0678,-1.0631,-1.0639,-1.0621,-1.06,-1.0598,-1.0574,-1.0572,-1.0536,-1.0531,-1.0539,-1.0515,-1.0543,-1.051,-1.0508,-1.0509,-1.0517,-1.0604,-1.0628,-1.0686,-1.0571,-1.0573,-1.0573,0,-1.0751,-1.074,-1.0762,-1.0731,-1.073,-1.0738,-1.0725,-1.0723,-1.0703,-1.0686,-1.0676,-1.0644,-1.0651,-1.0613,-1.0622,-1.0601,-1.0598,-1.0585,-1.0587,-1.0586,-1.0546,-1.0607,-1.0704,-1.0713,-1.0585,-1.0584,-1.0583,0,-1.083,-1.082,-1.0832,-1.0824,-1.0788,-1.0795,-1.078,-1.0758,-1.0753,-1.0741,-1.0738,-1.0727,-1.0722,-1.0714,-1.068,-1.0656,-1.0693,-1.0653,-1.068,-1.0682,-1.0692,-1.0692,-1.079,-1.0688,-1.0688,-1.0688,-1.0687,0,-1.0903,-1.0919,-1.0867,-1.0875,-1.0891,-1.0849,-1.0867,-1.0847,-1.0827,-1.0831,-1.0788,-1.0792,-1.0746,-1.0745,-1.0718,-1.073,-1.0728,-1.0715,-1.0708,-1.0719,-1.0721,-1.0718,-1.0714,-1.069,-1.0689,-1.0689,-1.0689,0,-1.0994,-1.096,-1.097,-1.0935,-1.0926,-1.094,-1.091,-1.0916,-1.0891,-1.0895,-1.0894,-1.0856,-1.0852,-1.0817,-1.0806,-1.0788,-1.081,-1.0795,-1.0818,-1.0813,-1.0843,-1.0841,-1.0944,-1.0955,-1.0845,-1.0846,-1.0847,0,-1.1043,-1.1054,-1.102,-1.1019,-1.1007,-1.1005,-1.1,-1.096,-1.0956,-1.0934,-1.0942,-1.0935,-1.0927,-1.0924,-1.0895,-1.0886,-1.0871,-1.0907,-1.0869,-1.0881,-1.0873,-1.0873,-1.0874,-1.0916,-1.0918,-1.0919,-1.092,0,-1.1135,-1.1118,-1.1112,-1.1101,-1.1096,-1.1085,-1.1072,-1.1073,-1.1028,-1.1027,-1.1022,-1.1017,-1.1005,-1.0999,-1.0984,-1.0969,-1.0938,-1.0932,-1.0938,-1.095,-1.0964,-1.0958,-1.0841,-1.093,-1.0929,-1.0928,-1.0927,-1.0927,-1.1207,-1.1215,-1.1192,-1.1188,-1.1173,-1.1161,-1.1165,-1.1141,-1.1137,-1.1124,-1.11,-1.11,-1.1078,-1.1056,-1.1044,-1.1043,-1.1024,-1.1032,-1.1035,-1.1038,-1.1045,-1.0963,-1.104,-1.1039,-1.1039,-1.1039,-1.1039,0,-1.1298,-1.1281,-1.1277,-1.1259,-1.1255,-1.1225,-1.1208,-1.1208,-1.1208,-1.119,-1.1184,-1.1179,-1.1172,-1.1143,-1.1133,-1.1139,-1.1124,-1.1137,-1.1137,-1.1135,-1.1061,-1.1058,-1.115,-1.115,-1.115,-1.115,-1.115,-1.115,-1.1344,-1.1356,-1.1336,-1.134,-1.1322,-1.1322,-1.1315,-1.1304,-1.129,-1.1287,-1.1281,-1.1262,-1.124,-1.1228,-1.1221,-1.1213,-1.1212,-1.1231,-1.1218,-1.115,-1.114,-1.1129,-1.1126,-1.123,-1.1231,-1.1291,-1.1291,-1.1292]}]]